Angoon, AK

3:02 AM AKST on November 13, 2019 (GMT -0900)
Angoon

Weather History for PAGN - October, 2019

Change the Weather History Date:

Wednesday, October 23, 2019

  Actual Average (PASI) Record (PASI)
Temperature  
Mean Temperature 46 °F -  
Max Temperature 48 °F 49 °F 62 °F (1980)
Min Temperature 43 °F 40 °F 29 °F (2012)
Degree Days  
Heating Degree Days 20    
Moisture  
Dew Point 44 °F    
Average Humidity 93    
Maximum Humidity 100    
Minimum Humidity 86    
Precipitation  
Precipitation 0.26 in - - ()
Sea Level Pressure  
Sea Level Pressure 30.03 in    
Wind  
Wind Speed 4 mph ()    
Max Wind Speed 14 mph    
Max Gust Speed 22 mph    
Visibility 9.5 miles    
Events Rain    
Averages and records for this station are not official NWS values.
T = Trace of Precipitation, MM = Missing Value Source: Averaged Metar Reports

Daily Weather History Graph

Daily Weather History Graph

Search for Another Location

Airport or City:

Astronomy

Oct. 23, 2019 Rise Set
Actual Time 7:50 AM AKDT 5:34 PM AKDT
Civil Twilight 7:10 AM AKDT 6:14 PM AKDT
Nautical Twilight 6:24 AM AKDT 6:59 PM AKDT
Astronomical Twilight 5:40 AM AKDT 7:43 PM AKDT
Moon 12:47 AM AKDT (10/23) 4:47 PM AKDT (10/23)
Length of Visible Light 11h 04m
Length of Day
9h 43m
Waning Crescent, 25% of the Moon is Illuminated
Oct 23
Waning Crescent
Oct 27
New
Nov 4
First Quarter
Nov 12
Full
Nov 19
Last Quarter

Hourly Weather History & Observations

Time (AKDT) Temp. Windchill Dew Point Humidity Pressure Visibility Wind Dir Wind Speed Gust Speed Precip Events Conditions
1:56 AM 43.0 °F - 42.1 °F 97% 30.29 in 10.0 mi Calm Calm - N/A   Overcast
2:56 AM 45.0 °F 42.6 °F 41.0 °F 86% 30.26 in 10.0 mi East 4.6 mph - N/A   Overcast
3:18 AM 44.6 °F 41.4 °F 41.0 °F 87% 30.28 in 10.0 mi East 5.8 mph - N/A   Overcast
4:25 AM 44.6 °F 42.2 °F 42.8 °F 93% 30.23 in 10.0 mi East 4.6 mph - 0.02 in Rain Light Rain
4:49 AM 44.6 °F 41.4 °F 42.8 °F 93% 30.22 in 10.0 mi East 5.8 mph - 0.03 in Rain Light Rain
4:56 AM 44.1 °F 42.5 °F 42.1 °F 93% 30.19 in 10.0 mi East 3.5 mph - 0.03 in Rain Light Rain
5:27 AM 44.6 °F 40.2 °F 42.8 °F 93% 30.19 in 10.0 mi East 8.1 mph - 0.01 in Rain Light Rain
6:56 AM 45.0 °F 40.6 °F 42.1 °F 90% 30.10 in 10.0 mi ESE 8.1 mph - 0.01 in Rain Light Rain
7:56 AM 45.0 °F 39.7 °F 42.1 °F 90% 30.04 in 10.0 mi East 10.4 mph 16.1 mph 0.05 in Rain Light Rain
9:56 AM 46.0 °F 40.6 °F 43.0 °F 89% 29.93 in 8.0 mi ESE 11.5 mph - 0.04 in Rain Light Rain
10:56 AM 46.0 °F 41.9 °F 44.1 °F 93% 29.91 in 7.0 mi ESE 8.1 mph - 0.05 in Rain Light Rain
12:56 PM 48.0 °F - 44.1 °F 86% 29.86 in 10.0 mi SSE 13.8 mph 21.9 mph 0.04 in Rain Light Rain
2:56 PM 48.0 °F - 46.0 °F 93% 29.83 in 10.0 mi ESE 5.8 mph - 0.03 in Rain Light Rain
5:56 PM 48.0 °F - 46.0 °F 93% 29.86 in 5.0 mi Calm Calm - 0.01 in Rain Light Rain
6:18 PM 48.2 °F - 46.4 °F 93% 29.90 in 10.0 mi Variable 4.6 mph - 0.00 in Rain Light Rain
6:56 PM 46.9 °F - 45.0 °F 93% 29.88 in 10.0 mi Calm Calm - 0.00 in   Overcast
7:04 PM 46.4 °F - 44.6 °F 93% 29.91 in 10.0 mi Calm Calm - N/A   Overcast
7:56 PM 46.9 °F - 46.0 °F 97% 29.90 in 10.0 mi Calm Calm - N/A   Mostly Cloudy
8:56 PM 45.0 °F - 44.1 °F 97% 29.92 in 10.0 mi Calm Calm - N/A   Clear
9:16 PM 44.6 °F - 44.6 °F 100% 29.95 in 10.0 mi Calm Calm - 0.01 in   Scattered Clouds
11:24 PM 44.6 °F - 44.6 °F 100% 30.00 in 10.0 mi Calm Calm - 0.00 in   Overcast
11:56 PM 44.1 °F - 44.1 °F 100% 29.97 in 10.0 mi Calm Calm - 0.00 in   Overcast